DateTimeUTC,F1_A11,F1_S11,BsB_S11,BsG_S11,BsR_S11,BbsB_S11,BbsG_S11,BbsR_S11,BaB_A11,BaG_A11,BaR_A11,Tu_S11,T_S11,Uu_S11,U_S11,P_S11,T1_A11
2021-07-19T07:00:00Z,00000200,20000000,,,,,,,-000.46,-000.17,-000.03,18.6,25.0,12.6,08.5,0675.0,31.0
2021-07-19T07:01:00Z,00000200,20000000,,,,,,,0000.24,0000.05,-000.08,18.6,25.1,12.6,08.5,0675.0,31.0
2021-07-19T07:02:00Z,00000200,20000000,,,,,,,0000.07,-000.50,0000.10,18.6,25.1,12.6,08.5,0675.0,31.0
2021-07-19T07:03:00Z,00000200,60000000,,,,,,,0000.74,0000.89,0000.35,18.6,25.1,12.6,08.5,0675.0,31.0
2021-07-19T07:04:00Z,00000200,40000000,0004.51,0003.12,0001.79,0000.92,0000.02,0000.24,0000.72,0000.96,0000.82,18.7,25.0,12.5,08.5,0675.9,31.0
2021-07-19T07:05:00Z,00000200,00000000,0005.00,0002.97,0001.94,0000.11,0000.16,0000.29,0000.64,0000.88,0000.34,18.7,24.9,12.6,08.6,0676.0,31.0
2021-07-19T07:06:00Z,00000200,00010000,0004.79,0003.47,0002.38,0000.79,0000.55,0000.33,0000.94,0000.65,0000.89,18.7,24.9,12.7,08.7,0676.0,31.1
2021-07-19T07:07:00Z,00000200,00000000,0004.62,0003.09,0001.71,0001.42,0000.20,0000.49,0001.17,0001.03,0000.45,18.7,24.9,12.7,08.7,0676.0,31.0
2021-07-19T07:08:00Z,00000200,00000000,0004.46,0003.22,0001.77,0001.25,0000.34,0000.41,0001.06,0000.57,0000.62,18.7,24.9,12.8,08.7,0676.0,31.0
2021-07-19T07:09:00Z,00000200,00000000,0004.82,0003.15,0002.03,0000.91,0000.40,0000.56,0000.79,0001.03,0001.02,18.7,24.9,12.7,08.7,0676.0,31.0
2021-07-19T07:10:00Z,00000200,00000000,0005.34,0003.30,0001.86,0000.06,0000.64,0000.81,0001.17,0000.91,0000.64,18.7,24.9,12.8,08.8,0676.0,31.0
2021-07-19T07:11:00Z,00000200,00000000,0004.65,0003.07,0001.73,0000.40,0000.66,0000.56,0000.70,0000.67,0000.71,18.7,24.9,12.9,08.8,0676.0,31.0
2021-07-19T07:12:00Z,00000200,00000000,0004.64,0003.52,0001.94,0001.12,0000.39,0000.62,0000.86,0000.83,0000.49,18.7,24.9,12.8,08.8,0676.0,31.0
2021-07-19T07:13:00Z,00000200,00000000,0004.66,0003.45,0002.01,0000.32,0000.47,0000.50,0001.27,0001.05,0000.85,18.7,24.9,12.9,08.8,0676.0,31.1
2021-07-19T07:14:00Z,00000200,00000000,0004.90,0003.53,0001.85,0000.76,0000.21,0000.29,0000.84,0001.19,0000.88,18.7,24.9,12.9,08.9,0676.1,31.0
2021-07-19T07:15:00Z,00000200,00000000,0005.30,0003.49,0002.12,0000.71,0000.67,0000.30,0001.11,0000.64,0000.35,18.7,24.9,12.9,08.9,0676.1,31.0
2021-07-19T07:16:00Z,00000200,00000000,0004.91,0003.17,0002.26,0000.50,0000.64,0000.47,0000.83,0000.62,0000.67,18.7,24.9,12.8,08.8,0676.0,31.0
2021-07-19T07:17:00Z,00000200,00000000,0004.77,0003.68,0002.41,0000.52,0000.43,0000.44,0001.05,0001.02,0000.87,18.8,24.9,12.8,08.8,0676.0,31.0
2021-07-19T07:18:00Z,00000200,00000000,0004.84,0003.48,0001.91,0000.72,0000.27,0000.53,0000.92,0001.14,0000.65,18.8,24.9,12.8,08.8,0676.0,31.0
2021-07-19T07:19:00Z,00000200,00000000,0004.68,0003.29,0001.92,0000.73,0000.51,0000.23,0001.22,0001.17,0000.94,18.8,24.9,12.9,08.9,0676.1,31.0
2021-07-19T07:20:00Z,00000200,00000000,0005.33,0003.63,0002.45,0001.49,0000.37,0000.49,0000.94,0000.71,0000.41,18.7,24.9,13.0,08.9,0676.0,31.0
2021-07-19T07:21:00Z,00000200,00000000,0005.02,0003.33,0001.98,0000.74,0000.50,0000.56,0000.93,0000.87,0001.02,18.7,24.9,13.0,08.9,0676.0,31.0
2021-07-19T07:22:00Z,00000200,00000000,0005.58,0003.47,0002.17,0001.14,0000.57,0000.48,0000.96,0000.99,0000.56,18.8,24.9,13.1,09.0,0676.0,31.0
2021-07-19T07:23:00Z,00000200,00000000,0005.47,0003.39,0002.27,0001.19,0000.34,0000.62,0001.12,0001.01,0000.82,18.8,24.9,13.0,08.9,0676.0,31.0
2021-07-19T07:24:00Z,00000200,00000000,0005.78,0003.76,0002.15,0000.28,0000.48,0000.16,0001.34,0000.82,0000.96,18.8,24.9,13.0,09.0,0676.0,31.0
2021-07-19T07:25:00Z,00000200,00000000,0005.92,0003.74,0002.05,0000.94,0000.44,0000.45,0000.90,0001.33,0000.47,18.8,24.9,13.1,09.0,0676.1,31.0
2021-07-19T07:26:00Z,00000200,00000000,0006.18,0003.79,0002.13,0000.88,0000.41,0000.26,0001.07,0000.59,0001.25,18.8,24.9,13.1,09.0,0676.0,31.1
2021-07-19T07:27:00Z,00000200,00000000,0005.80,0003.62,0002.11,0001.03,0000.53,0000.43,0001.14,0001.21,0000.65,18.7,24.9,13.1,09.0,0676.0,31.1
2021-07-19T07:28:00Z,00000200,00000000,0006.14,0004.11,0002.23,0001.23,0000.72,0000.02,0001.04,0000.95,0000.47,18.7,24.9,13.0,09.0,0676.0,31.1
2021-07-19T07:29:00Z,00000200,00000000,0006.69,0003.92,0002.35,0000.59,0000.52,0000.48,0001.36,0001.25,0000.98,18.8,24.9,13.1,09.0,0676.0,31.0
2021-07-19T07:30:00Z,00000200,00000000,0005.92,0004.15,0002.22,0001.00,0000.72,0000.34,0000.78,0001.03,0000.61,18.8,24.9,13.1,09.0,0676.0,31.0
2021-07-19T07:31:00Z,00000200,00000000,0007.02,0003.99,0002.37,0000.44,0000.63,0000.30,0001.07,0001.12,0000.85,18.7,24.9,13.1,09.0,0676.0,31.0
2021-07-19T07:32:00Z,00000200,00000000,0006.53,0003.97,0002.45,0001.16,0000.50,0000.46,0001.24,0000.58,0000.98,18.7,24.9,12.9,08.9,0676.0,31.0
2021-07-19T07:33:00Z,00000200,00000000,0006.05,0003.78,0002.33,0000.27,0000.19,0000.47,0001.09,0001.14,0000.58,18.7,24.9,13.0,09.0,0676.0,31.0
2021-07-19T07:34:00Z,00000200,00000000,0004.92,0003.61,0002.21,0000.58,0000.71,0000.39,0001.13,0001.36,0000.97,18.7,24.8,12.9,08.9,0676.0,31.0
2021-07-19T07:35:00Z,00000200,00000000,0005.85,0003.88,0002.23,0001.07,0000.40,0000.36,0001.09,0000.61,0000.77,18.7,24.9,13.0,08.9,0676.0,31.0
2021-07-19T07:36:00Z,00000200,00000000,0005.35,0003.48,0002.28,0000.65,0000.26,0000.24,0001.12,0001.12,0000.73,18.7,24.9,12.9,08.9,0676.0,31.0
2021-07-19T07:37:00Z,00000200,00000000,0005.40,0003.11,0002.46,0001.30,0000.41,0000.38,0000.87,0000.54,0000.47,18.7,24.8,12.7,08.8,0676.0,31.0
2021-07-19T07:38:00Z,00000200,00000000,0005.46,0003.60,0002.05,0000.52,0000.30,0000.64,0000.92,0000.83,0000.55,18.7,24.9,12.6,08.7,0676.0,31.1
2021-07-19T07:39:00Z,00000200,00000000,0005.34,0003.89,0002.23,0000.90,0000.18,0000.32,0001.08,0001.43,0001.03,18.7,24.8,12.7,08.7,0676.0,31.0
2021-07-19T07:40:00Z,00000200,00000000,0004.22,0003.49,0002.34,0000.68,0000.44,0000.33,0001.07,0000.66,0000.72,18.7,24.9,12.7,08.7,0676.0,31.0
2021-07-19T07:41:00Z,00000200,00000000,0005.63,0003.69,0002.04,0000.50,0000.45,0000.33,0000.93,0000.84,0000.20,18.7,24.9,12.7,08.7,0676.0,31.0
2021-07-19T07:42:00Z,00000200,00000000,0005.75,0003.48,0002.08,0000.39,0000.31,0000.59,0000.91,0001.22,0001.16,18.7,24.8,12.6,08.7,0676.0,31.0
2021-07-19T07:43:00Z,00000200,00000000,0005.22,0003.53,0002.45,0000.73,0000.10,0000.60,0001.69,0001.08,0000.74,18.7,24.8,12.7,08.8,0676.0,31.0
2021-07-19T07:44:00Z,00000200,00000000,0005.08,0003.61,0002.23,0001.08,0000.29,0000.15,0000.38,0000.66,0000.73,18.7,24.8,12.7,08.8,0676.0,31.0
2021-07-19T07:45:00Z,00000200,00000000,0004.81,0003.34,0002.22,0000.39,0000.57,0000.46,0001.11,0001.30,0000.73,18.7,24.9,12.7,08.7,0676.0,31.1
2021-07-19T07:46:00Z,00000200,00000000,0005.47,0003.32,0002.27,0000.96,0000.16,0000.46,0001.33,0000.66,0000.68,18.7,24.9,12.7,08.7,0676.0,31.1
2021-07-19T07:47:00Z,00000200,00000000,0004.64,0003.59,0002.18,0000.34,0000.41,0000.48,0000.55,0000.91,0000.65,18.7,24.9,12.5,08.6,0676.0,31.0
2021-07-19T07:48:00Z,00000200,00000000,0005.04,0003.36,0001.95,0001.16,0000.46,0000.34,0001.39,0001.02,0000.57,18.7,24.8,12.5,08.6,0676.0,31.0
2021-07-19T07:49:00Z,00000200,00000000,0004.94,0003.17,0001.93,0000.87,0000.49,0000.53,0001.26,0000.76,0000.99,18.7,24.8,12.6,08.7,0676.0,31.0
2021-07-19T07:50:00Z,00000200,00000000,0005.07,0003.14,0001.97,0000.93,0000.58,0000.75,0001.17,0001.19,0000.93,18.8,24.9,12.5,08.6,0676.0,31.0
2021-07-19T07:51:00Z,00000200,00000000,0004.47,0003.14,0002.34,0000.69,0000.27,0000.58,0000.34,0000.37,0000.35,18.8,24.9,12.3,08.5,0676.0,31.1
2021-07-19T07:52:00Z,00000200,00000000,0004.29,0003.20,0001.94,0000.91,-000.01,0000.53,0000.85,0000.86,0000.42,18.9,24.9,12.5,08.6,0676.0,31.1
2021-07-19T07:53:00Z,00000200,00000000,0004.96,0003.39,0001.69,0001.16,0000.32,0000.63,0000.93,0000.95,0000.79,18.9,24.9,12.3,08.5,0676.0,31.1
2021-07-19T07:54:00Z,00000200,00000000,0004.54,0002.78,0001.77,0001.05,0000.33,0000.28,0000.43,0000.61,0000.36,18.9,25.0,12.2,08.4,0676.0,31.1
2021-07-19T07:55:00Z,00000200,00000000,0004.33,0002.56,0001.92,0000.62,0000.10,0000.38,0001.18,0000.79,0000.70,18.9,25.0,12.1,08.4,0675.9,31.1
2021-07-19T07:56:00Z,00000200,00000000,0005.29,0003.05,0001.79,0000.95,0000.38,0000.30,0000.78,0000.86,0000.67,18.9,25.0,12.1,08.4,0676.0,31.1
2021-07-19T07:57:00Z,00000200,40000000,,,,,,,0000.73,0000.37,0000.39,19.0,25.0,11.7,08.1,0676.1,31.1
2021-07-19T07:58:00Z,00000200,60000000,,,,,,,-000.18,-000.15,-000.19,18.8,25.1,12.2,08.3,0675.0,31.1
2021-07-19T07:59:00Z,00000200,20000000,,,,,,,-000.17,-000.06,-000.21,18.8,25.2,12.1,08.2,0675.0,31.1
